GW0714 Weather Reports


Display with metric or nautical units.
time (UTC)temp
F
wind
direction
speed
MPH
gust
MPH
rain 1hr
in
rain 24hr
in
rain mn
in
humidity
%
barometer
mb
20260507092534 57 232 0.0 2.0 0.00 0.07 0.00 90 1018.7
20260507092029 57 0 0.0 2.0 0.00 0.07 0.00 90 1018.7
20260507091555 57 0 0.0 2.0 0.00 0.07 0.00 90 1018.7
20260507091029 57 0 0.0 2.0 0.00 0.07 0.00 90 1018.7
20260507090533 57 0 0.0 2.0 0.00 0.07 0.00 90 1018.7
20260507090051 57 232 0.0 1.0 0.00 0.07 0.00 89 1018.8
20260507085529 57 232 0.0 2.0 0.00 0.08 0.00 89 1018.8
20260507085030 57 0 0.0 2.0 0.00 0.08 0.00 89 1018.9
20260507084538 57 0 0.0 2.0 0.00 0.08 0.00 89 1018.9
20260507084030 57 0 0.0 2.0 0.00 0.08 0.00 89 1018.9
20260507083529 57 0 0.0 2.0 0.00 0.08 0.00 89 1018.9
20260507083033 57 0 0.0 1.0 0.00 0.08 0.00 89 1018.9
20260507082528 57 0 0.0 1.0 0.00 0.08 0.00 89 1019.0
20260507082030 57 0 0.0 0.0 0.00 0.08 0.00 89 1018.9
20260507081548 57 0 0.0 0.0 0.00 0.08 0.00 89 1019.1
20260507081030 57 0 0.0 0.0 0.00 0.08 0.00 89 1019.0
20260507080529 57 0 0.0 1.0 0.00 0.08 0.00 89 1019.1
20260507080049 57 0 0.0 1.0 0.00 0.08 0.00 89 1018.9
20260507075530 57 283 0.0 1.0 0.00 0.09 0.00 89 1019.0
20260507075031 58 0 0.0 1.0 0.00 0.09 0.00 89 1019.0
20260507074541 58 0 0.0 1.0 0.00 0.09 0.00 89 1018.9
20260507074031 58 275 0.0 1.0 0.00 0.09 0.00 89 1019.0
20260507073530 58 0 0.0 1.0 0.00 0.09 0.00 89 1019.0
20260507073040 58 250 0.0 1.0 0.00 0.09 0.00 88 1019.0
20260507072529 58 0 0.0 1.0 0.00 0.09 0.00 88 1019.1
20260507072029 58 0 0.0 0.0 0.00 0.09 0.00 87 1019.1
20260507071543 58 0 0.0 0.0 0.00 0.09 0.00 87 1018.9
20260507071030 58 0 0.0 0.0 0.00 0.09 0.00 87 1019.1
20260507070530 59 0 0.0 0.0 0.00 0.09 0.00 86 1019.1
20260507070100 59 0 0.0 0.0 0.00 0.09 0.00 87 1019.1
20260507065529 59 0 0.0 0.0 0.00 0.10 0.09 87 1019.1
20260507065029 59 0 0.0 0.0 0.00 0.10 0.09 86 1018.9
20260507064541 59 0 0.0 0.0 0.00 0.10 0.09 86 1019.0
20260507064030 59 0 0.0 1.0 0.00 0.10 0.09 86 1018.9
20260507063530 59 0 0.0 1.0 0.00 0.10 0.09 86 1018.9
20260507063038 59 0 0.0 1.0 0.00 0.10 0.09 86 1018.9
20260507062528 59 0 0.0 1.0 0.00 0.10 0.09 86 1018.9
20260507062029 59 0 0.0 1.0 0.00 0.10 0.09 86 1018.9
20260507061538 59 0 0.0 1.0 0.00 0.10 0.09 86 1018.9
20260507061029 59 0 0.0 1.0 0.00 0.10 0.09 86 1018.9
20260507060529 59 0 0.0 1.0 0.00 0.10 0.09 86 1018.9
20260507060044 59 0 0.0 0.0 0.00 0.10 0.09 86 1018.9
20260507055530 59 0 0.0 0.0 0.00 0.12 0.09 86 1018.9
20260507055031 59 0 0.0 0.0 0.00 0.12 0.09 86 1018.9
20260507054549 59 0 0.0 0.0 0.00 0.12 0.09 86 1018.9
20260507054030 59 0 0.0 0.0 0.00 0.12 0.09 85 1018.9
20260507053530 59 0 0.0 0.0 0.00 0.12 0.09 85 1018.9
20260507053042 60 0 0.0 0.0 0.00 0.12 0.09 85 1018.9
20260507052529 60 0 0.0 1.0 0.00 0.12 0.09 85 1018.9
20260507052030 60 0 0.0 1.0 0.00 0.12 0.09 85 1018.9
20260507051538 60 0 0.0 2.0 0.00 0.12 0.09 85 1018.8
20260507051029 60 0 0.0 2.0 0.00 0.12 0.09 85 1018.9
20260507050529 60 0 0.0 2.0 0.00 0.12 0.09 84 1018.8
20260507050047 60 0 0.0 1.0 0.00 0.12 0.09 84 1018.8
20260507045531 60 0 0.0 1.0 0.00 0.13 0.09 84 1018.8
20260507045030 60 0 0.0 1.0 0.00 0.13 0.09 84 1018.8
20260507044545 60 0 0.0 1.0 0.00 0.13 0.09 84 1018.8
20260507044029 60 0 0.0 1.0 0.00 0.13 0.09 84 1018.7
20260507043530 60 0 0.0 1.0 0.00 0.13 0.09 83 1018.6
20260507043040 60 0 0.0 1.0 0.00 0.13 0.09 83 1018.6
20260507042530 60 0 0.0 0.0 0.00 0.13 0.09 83 1018.6
20260507042030 60 0 0.0 1.0 0.00 0.13 0.09 83 1018.6
20260507041544 60 0 0.0 1.0 0.00 0.13 0.09 83 1018.5
20260507041030 60 0 0.0 2.0 0.00 0.13 0.09 82 1018.5
20260507040528 61 0 0.0 2.0 0.00 0.13 0.09 82 1018.4
20260507040043 61 236 0.0 0.0 0.01 0.13 0.09 81 1018.3
20260507035529 61 0 0.0 0.0 0.01 0.15 0.09 81 1018.2
20260507035030 61 0 0.0 0.0 0.01 0.15 0.09 80 1018.3
20260507034538 61 0 0.0 0.0 0.01 0.15 0.09 80 1018.2
20260507034029 62 0 0.0 0.0 0.01 0.15 0.09 80 1018.2
20260507033529 62 0 0.0 0.0 0.01 0.15 0.09 80 1018.2
20260507033038 62 0 0.0 0.0 0.01 0.15 0.09 80 1018.2
20260507032530 62 0 0.0 0.0 0.01 0.15 0.09 79 1018.2
20260507032029 63 0 0.0 0.0 0.01 0.15 0.09 78 1018.1
20260507031537 63 0 0.0 0.0 0.01 0.15 0.09 77 1018.0
20260507031034 63 0 0.0 0.0 0.01 0.15 0.09 77 1018.1
20260507030530 64 0 0.0 1.0 0.01 0.15 0.09 76 1018.0
20260507030040 64 0 0.0 1.0 0.00 0.14 0.08 76 1018.0
20260507025530 64 0 0.0 1.0 0.00 0.15 0.08 76 1018.0
20260507025030 64 0 0.0 0.0 0.00 0.15 0.08 75 1018.0
20260507024543 64 0 0.0 1.0 0.00 0.15 0.08 76 1017.9
20260507024030 64 0 0.0 2.0 0.00 0.15 0.08 75 1017.9
20260507023604 65 0 0.0 2.0 0.00 0.15 0.08 76 1018.0
20260507023040 65 0 0.0 4.0 0.00 0.15 0.08 75 1018.0
20260507022530 65 0 1.0 4.0 0.00 0.15 0.08 75 1018.0
20260507022030 65 136 1.0 5.0 0.00 0.15 0.08 74 1017.9
20260507021540 65 158 2.0 5.0 0.00 0.15 0.08 73 1017.9
20260507021030 66 136 2.0 4.0 0.00 0.15 0.08 73 1018.0
20260507020529 66 163 1.0 4.0 0.00 0.15 0.08 73 1018.0
20260507020037 66 161 1.0 4.0 0.00 0.15 0.08 73 1018.0
20260507015531 66 150 2.0 5.0 0.00 0.16 0.08 73 1018.0
20260507015028 66 163 1.0 5.0 0.00 0.16 0.08 72 1018.1
20260507014550 66 134 1.0 4.0 0.00 0.16 0.08 71 1018.0
20260507014030 66 0 0.0 5.0 0.00 0.16 0.08 72 1018.0
20260507013529 66 150 1.0 5.0 0.00 0.16 0.08 72 1017.9
20260507013035 67 156 1.0 4.0 0.00 0.16 0.08 70 1017.9
20260507012530 67 139 1.0 6.0 0.00 0.16 0.08 70 1018.0
20260507012031 67 97 1.0 6.0 0.00 0.16 0.08 71 1017.9
20260507011542 67 147 1.0 5.0 0.00 0.16 0.08 70 1018.1
20260507011029 68 149 2.0 5.0 0.00 0.16 0.08 69 1018.0
20260507010533 68 5 2.0 5.0 0.00 0.16 0.08 68 1018.1
20260507010047 68 5 1.0 6.0 0.00 0.16 0.08 68 1018.0
20260507005530 68 43 2.0 6.0 0.00 0.16 0.08 68 1018.0
20260507005029 68 352 1.0 6.0 0.00 0.16 0.08 68 1018.0
20260507004542 68 346 0.0 4.0 0.00 0.16 0.08 69 1017.9
20260507004030 68 14 1.0 4.0 0.00 0.16 0.08 67 1018.0
20260507003530 68 135 1.0 6.0 0.00 0.16 0.08 68 1018.0
20260507003039 68 53 2.0 6.0 0.00 0.16 0.08 68 1018.1
20260507002532 68 98 2.0 6.0 0.00 0.16 0.08 68 1018.1
20260507002031 68 167 1.0 5.0 0.00 0.16 0.08 68 1018.2
20260507001539 68 163 1.0 5.0 0.00 0.16 0.08 67 1018.2
20260507001029 68 150 2.0 5.0 0.00 0.16 0.08 68 1018.1
20260507000531 68 46 1.0 4.0 0.00 0.16 0.08 69 1018.2
20260507000044 68 111 2.0 4.0 0.00 0.16 0.08 69 1018.3
20260506235530 67 90 1.0 7.0 0.00 0.17 0.08 70 1018.2
20260506235030 67 32 1.0 7.0 0.00 0.17 0.08 72 1018.2
20260506234540 67 136 3.0 7.0 0.00 0.17 0.08 69 1018.2
20260506234029 68 143 1.0 5.0 0.00 0.17 0.08 69 1018.2
20260506233530 68 0 1.0 7.0 0.00 0.17 0.08 69 1018.2
20260506233038 67 118 2.0 7.0 0.00 0.17 0.08 70 1018.2
20260506232529 67 151 3.0 7.0 0.00 0.17 0.08 69 1018.3
20260506232029 68 315 1.0 8.0 0.00 0.17 0.08 70 1018.3
20260506231539 67 53 2.0 8.0 0.00 0.17 0.08 71 1018.3
20260506231032 67 17 2.0 8.0 0.00 0.17 0.08 71 1018.4
20260506230529 66 322 2.0 8.0 0.00 0.17 0.08 71 1018.4
20260506230045 67 158 2.0 8.0 0.00 0.17 0.08 71 1018.5
20260506225530 67 101 2.0 8.0 0.00 0.17 0.08 70 1018.6
20260506225028 66 327 2.0 8.0 0.00 0.17 0.08 71 1018.6
20260506224542 66 239 2.0 5.0 0.00 0.17 0.08 73 1018.8
20260506224028 66 0 2.0 6.0 0.00 0.17 0.08 71 1018.8
20260506223529 67 120 1.0 8.0 0.00 0.17 0.08 70 1018.8
20260506223038 67 327 4.0 8.0 0.00 0.17 0.08 72 1018.9
20260506222527 65 329 1.0 5.0 0.00 0.17 0.08 75 1018.9
20260506222029 64 56 1.0 7.0 0.00 0.17 0.08 75 1019.1
20260506221539 64 117 3.0 7.0 0.00 0.17 0.08 74 1019.2
20260506221026 64 130 1.0 5.0 0.00 0.17 0.08 74 1019.1
20260506220529 63 157 1.0 4.0 0.00 0.17 0.08 78 1019.3
20260506220039 63 333 1.0 5.0 0.00 0.17 0.08 78 1019.5
20260506215526 62 79 1.0 7.0 0.00 0.18 0.08 79 1019.6
20260506215029 62 161 2.0 7.0 0.00 0.18 0.08 78 1019.7
20260506214537 62 129 1.0 5.0 0.00 0.18 0.08 78 1019.6
20260506214026 62 0 1.0 5.0 0.00 0.18 0.08 79 1019.7
20260506213527 61 34 0.0 4.0 0.00 0.18 0.08 80 1019.8
20260506213036 61 0 0.0 4.0 0.00 0.18 0.08 80 1019.8
20260506212527 61 192 0.0 3.0 0.00 0.18 0.08 80 1019.9
20260506212027 61 155 1.0 6.0 0.00 0.18 0.08 80 1020.0
20260506211540 61 0 1.0 6.0 0.00 0.18 0.08 81 1020.0
20260506211030 60 324 1.0 5.0 0.01 0.18 0.08 81 1020.1
20260506210532 60 145 1.0 5.0 0.01 0.18 0.08 80 1020.1
20260506210038 60 0 0.0 5.0 0.01 0.18 0.08 81 1020.2
20260506205526 60 139 0.0 3.0 0.01 0.18 0.08 81 1020.2
20260506205026 60 173 0.0 5.0 0.01 0.18 0.08 81 1020.3
20260506204538 60 178 0.0 6.0 0.01 0.18 0.08 82 1020.3
20260506204029 60 138 2.0 6.0 0.01 0.18 0.08 82 1020.4
20260506203528 60 144 2.0 6.0 0.01 0.18 0.08 81 1020.3
20260506203042 60 148 2.0 6.0 0.01 0.18 0.08 82 1020.3
20260506202529 60 98 1.0 4.0 0.01 0.18 0.08 82 1020.4
20260506202029 60 109 1.0 4.0 0.01 0.18 0.08 82 1020.4
20260506201555 60 36 0.0 4.0 0.01 0.18 0.08 82 1020.4
20260506201032 60 121 2.0 5.0 0.00 0.17 0.07 82 1020.4
20260506200529 60 0 1.0 8.0 0.00 0.17 0.07 82 1020.4
20260506200042 60 145 2.0 8.0 0.00 0.17 0.07 82 1020.4
20260506195531 60 143 1.0 5.0 0.00 0.17 0.07 82 1020.4
20260506195032 60 0 1.0 5.0 0.00 0.17 0.07 81 1020.4
20260506194548 60 134 0.0 5.0 0.00 0.17 0.07 83 1020.5
20260506194030 60 18 0.0 5.0 0.00 0.17 0.07 83 1020.5
20260506193530 60 151 0.0 3.0 0.00 0.17 0.07 82 1020.6
20260506193052 60 122 1.0 4.0 0.00 0.17 0.07 81 1020.6
20260506192530 59 113 0.0 4.0 0.00 0.17 0.07 83 1020.7
20260506192030 59 184 1.0 4.0 0.00 0.17 0.07 83 1020.7
20260506191541 59 96 1.0 6.0 0.00 0.17 0.07 84 1020.8
20260506191029 59 145 2.0 6.0 0.00 0.17 0.07 83 1020.8
20260506190530 59 165 1.0 5.0 0.00 0.17 0.07 81 1020.8
20260506190045 59 141 2.0 5.0 0.00 0.17 0.07 80 1020.9
20260506185531 59 0 0.0 4.0 0.00 0.18 0.07 79 1020.8
20260506185031 59 128 1.0 4.0 0.00 0.18 0.07 78 1020.9
20260506184550 59 0 2.0 4.0 0.00 0.18 0.07 77 1020.8
20260506184030 59 0 0.0 4.0 0.00 0.18 0.07 79 1020.8
20260506183531 59 0 2.0 4.0 0.00 0.18 0.07 79 1020.8
20260506183050 59 0 0.0 4.0 0.00 0.18 0.07 80 1020.9
20260506182530 59 0 2.0 4.0 0.00 0.18 0.07 80 1020.9
20260506182033 59 128 0.0 4.0 0.00 0.18 0.07 79 1020.8
20260506181550 59 0 1.0 5.0 0.00 0.18 0.07 78 1020.9
20260506181032 59 159 2.0 5.0 0.00 0.18 0.07 79 1020.9
20260506180531 59 0 1.0 4.0 0.00 0.18 0.07 81 1020.8
20260506180051 58 254 0.0 4.0 0.00 0.18 0.07 81 1020.9
20260506175533 58 0 1.0 8.0 0.00 0.19 0.07 81 1020.8
20260506175033 58 169 2.0 8.0 0.00 0.19 0.07 81 1020.8
20260506174537 58 140 1.0 8.0 0.00 0.19 0.07 79 1020.7
20260506174035 58 149 1.0 3.0 0.01 0.19 0.07 80 1020.8
20260506173531 58 0 0.0 5.0 0.01 0.19 0.07 79 1020.8
20260506173100 59 146 2.0 5.0 0.01 0.19 0.07 79 1020.8
20260506172531 58 0 0.0 6.0 0.01 0.19 0.07 82 1020.8
20260506172032 58 0 1.0 6.0 0.01 0.19 0.07 80 1020.8
20260506171551 58 167 0.0 4.0 0.01 0.19 0.07 82 1020.7
20260506171030 58 0 0.0 4.0 0.01 0.19 0.07 81 1020.8
20260506170527 58 0 1.0 5.0 0.01 0.19 0.07 82 1020.8
20260506170038 58 145 2.0 5.0 0.01 0.19 0.07 82 1020.8
20260506165533 57 136 2.0 5.0 0.01 0.20 0.07 83 1020.8
20260506165030 57 140 0.0 4.0 0.01 0.20 0.07 86 1020.7
20260506164539 57 0 1.0 4.0 0.01 0.20 0.07 86 1020.7
20260506164029 57 0 0.0 4.0 0.00 0.19 0.06 87 1020.7
20260506163532 57 0 1.0 4.0 0.00 0.19 0.06 86 1020.7
20260506163052 57 148 1.0 4.0 0.00 0.19 0.06 87 1020.7
20260506162532 57 0 0.0 4.0 0.00 0.19 0.06 88 1020.6
20260506162032 56 144 1.0 4.0 0.00 0.19 0.06 88 1020.6
20260506161542 56 152 1.0 3.0 0.00 0.19 0.06 88 1020.5
20260506161027 56 0 0.0 3.0 0.00 0.19 0.06 89 1020.5
20260506160535 56 333 0.0 2.0 0.00 0.19 0.06 89 1020.4
20260506160035 56 0 0.0 2.0 0.00 0.19 0.06 88 1020.5
20260506155529 56 0 0.0 2.0 0.00 0.19 0.06 89 1020.5
20260506155029 56 329 0.0 2.0 0.00 0.19 0.06 90 1020.5
20260506154547 56 0 0.0 2.0 0.00 0.19 0.06 89 1020.5
20260506154029 56 329 0.0 2.0 0.01 0.19 0.06 90 1020.4
20260506153525 56 0 0.0 1.0 0.01 0.19 0.06 90 1020.4
20260506153041 55 0 0.0 0.0 0.01 0.19 0.06 91 1020.4
20260506152531 55 0 0.0 0.0 0.01 0.19 0.06 91 1020.5
20260506152032 55 0 0.0 0.0 0.01 0.19 0.06 91 1020.4
20260506151540 55 0 0.0 0.0 0.01 0.19 0.06 92 1020.5
20260506151029 55 0 0.0 0.0 0.01 0.19 0.06 92 1020.5
20260506150526 55 0 0.0 0.0 0.01 0.19 0.06 92 1020.6
20260506150039 55 0 0.0 0.0 0.01 0.19 0.06 92 1020.5
20260506145526 55 0 0.0 0.0 0.01 0.20 0.06 93 1020.4
20260506145029 54 0 0.0 0.0 0.01 0.20 0.06 93 1020.5
20260506144538 54 0 0.0 0.0 0.01 0.20 0.06 93 1020.4
20260506144026 54 0 0.0 0.0 0.00 0.19 0.05 93 1020.5
20260506143529 54 0 0.0 0.0 0.00 0.19 0.05 93 1020.4
20260506143042 54 0 0.0 0.0 0.00 0.19 0.05 93 1020.4
20260506142525 54 0 0.0 0.0 0.01 0.19 0.05 93 1020.3
20260506142025 54 0 0.0 0.0 0.01 0.19 0.05 93 1020.2
20260506141539 53 0 0.0 0.0 0.01 0.19 0.05 94 1020.2
20260506141032 53 0 0.0 0.0 0.01 0.19 0.05 94 1020.1
20260506140530 53 0 0.0 0.0 0.01 0.19 0.05 94 1020.1
20260506140049 53 0 0.0 0.0 0.01 0.19 0.05 93 1020.1
20260506135531 53 0 0.0 0.0 0.01 0.20 0.05 93 1020.1
20260506135032 53 0 0.0 0.0 0.01 0.20 0.05 93 1020.1
20260506134535 53 0 0.0 0.0 0.01 0.20 0.05 94 1020.1
20260506134031 53 0 0.0 0.0 0.01 0.20 0.05 94 1020.0
20260506133531 53 0 0.0 0.0 0.01 0.20 0.05 94 1020.0
20260506133045 53 0 0.0 0.0 0.00 0.19 0.04 94 1019.9
20260506132531 53 0 0.0 0.0 0.00 0.19 0.04 94 1019.9
20260506132029 53 0 0.0 0.0 0.00 0.19 0.04 94 1019.9
20260506131534 53 0 0.0 0.0 0.00 0.19 0.04 94 1019.8
20260506131031 53 0 0.0 0.0 0.00 0.19 0.04 94 1019.9
20260506130531 53 0 0.0 0.0 0.00 0.19 0.04 94 1019.8
20260506130039 53 0 0.0 0.0 0.00 0.19 0.04 94 1019.8
20260506125528 53 0 0.0 0.0 0.00 0.21 0.04 94 1019.8
20260506125030 53 0 0.0 0.0 0.01 0.21 0.04 94 1019.7
20260506124540 53 0 0.0 0.0 0.01 0.21 0.04 93 1019.8
20260506124029 53 0 0.0 0.0 0.01 0.21 0.04 93 1019.7
20260506123531 53 0 0.0 0.0 0.01 0.21 0.04 93 1019.7
20260506123039 53 0 0.0 0.0 0.01 0.21 0.04 93 1019.7
20260506122530 53 0 0.0 0.0 0.01 0.21 0.04 93 1019.6
20260506122033 53 0 0.0 0.0 0.01 0.21 0.04 93 1019.6
20260506121538 53 0 0.0 0.0 0.01 0.21 0.04 93 1019.6
20260506121031 53 0 0.0 1.0 0.01 0.21 0.04 93 1019.5
20260506120531 53 0 0.0 1.0 0.01 0.21 0.04 93 1019.5
20260506120050 53 0 0.0 1.0 0.01 0.21 0.04 93 1019.5
20260506115531 53 0 0.0 1.0 0.01 0.22 0.04 93 1019.5
20260506115031 53 0 0.0 0.0 0.00 0.21 0.03 93 1019.5
20260506114601 53 0 0.0 0.0 0.00 0.21 0.03 93 1019.5
20260506114030 53 0 0.0 0.0 0.00 0.21 0.03 93 1019.5
20260506113530 53 0 0.0 0.0 0.00 0.21 0.03 93 1019.4
20260506113038 53 0 0.0 0.0 0.00 0.21 0.03 93 1019.4
20260506112532 53 0 0.0 0.0 0.00 0.21 0.03 93 1019.4
20260506112029 53 0 0.0 0.0 0.00 0.21 0.03 93 1019.4
20260506111542 53 0 0.0 0.0 0.00 0.21 0.03 93 1019.3
20260506111030 53 0 0.0 0.0 0.00 0.21 0.03 93 1019.3
20260506110530 53 0 0.0 0.0 0.00 0.21 0.03 93 1019.2
20260506110038 53 0 0.0 1.0 0.00 0.21 0.03 93 1019.1
20260506105531 53 0 0.0 1.0 0.01 0.23 0.03 93 1019.0
20260506105031 53 0 0.0 1.0 0.01 0.23 0.03 93 1019.1
20260506104541 53 0 0.0 0.0 0.01 0.23 0.03 93 1019.0
20260506104030 53 0 0.0 0.0 0.01 0.23 0.03 93 1019.1
20260506103530 53 0 0.0 0.0 0.01 0.23 0.03 93 1019.1
20260506103042 53 0 0.0 0.0 0.01 0.23 0.03 93 1018.9
20260506102534 53 0 0.0 0.0 0.01 0.23 0.03 93 1018.9
20260506102029 53 0 0.0 0.0 0.01 0.23 0.03 93 1018.8
20260506101541 53 0 0.0 0.0 0.01 0.23 0.03 93 1018.8
20260506101028 53 0 0.0 0.0 0.01 0.23 0.03 93 1018.8
20260506100530 53 0 0.0 0.0 0.01 0.23 0.03 93 1018.7
20260506100040 53 0 0.0 0.0 0.01 0.23 0.03 93 1018.7
20260506095530 53 0 0.0 0.0 0.00 0.24 0.02 93 1018.8
20260506095031 53 0 0.0 0.0 0.00 0.24 0.02 92 1018.8
20260506094544 53 0 0.0 0.0 0.00 0.24 0.02 92 1018.8
20260506094029 53 0 0.0 0.0 0.00 0.24 0.02 92 1018.7
20260506093532 53 0 0.0 0.0 0.00 0.24 0.02 92 1018.7
20260506093100 53 0 0.0 0.0 0.00 0.24 0.02 92 1018.7